ARIANE 44L DEB, 48419

Orbit data source: Space-Track

ARIANE 44L DEB, 48419 is space debris in HEO originally from a launch on Tue, 29 Oct 1991 UTC launched from the French Guiana (FRGUI). Debris objects in space refer to the collection of defunct objects orbiting the Earth. Examples of debris include non-operational satellites, rocket bodies, and fragments generated from explosions, collisions, or faulty payload assembly.

Loading next visibility...
Identifier
48419, 1991-075Q
Orbit
HEO
Country
Flag of FRFR
Related business
Manufacturer
Unknown
Mission
Spacecraft
Bus & Motor
Unknown
Mass
Unknown
Launch date (UTC)
1991-10-29 (35 years ago)
Launch vehicle
Unknown
Launch site
French Guiana (FRGUI)
Object type
Payload
Rocket body
Debris
Shape & HBR
Unknown shape, 0.9 m
Radar Cross Section
Large (>1 m²)

Expand to show TLE details & history
Last TLE update: 2 days ago

TLE from 2 days ago
0 ARIANE 44L DEB
1 48419U 91075Q   26171.31970079  .00001247  00000-0  41129-2 0  9994
2 48419   6.9926 197.6691 6352570  13.3973 357.7401  3.36234736150339
Epoch: 2026-06-20T07:40Z
TLE epoch observation values (Epoch: 2026-06-20T07:40:22.148Z)
Latitude
-0.00002°
Longitude
174.02676°
Altitude
564.495 km
Speed
9.677 km/s
True Right ascension
13h 10m 37s
True Declination
0° 00' 00"
Sunlit
Object was in daylight at epoch
Visualization orbit readout
Latitude
Unknown
Longitude
Unknown
Altitude
Unknown
Speed
Unknown
Apparent Right ascension
Unknown
Apparent Declination
Unknown
Sunlit
N/A
Visualization observer readout
Local Sidereal Time
21:25:03
Azimuth
Unknown
Elevation
Unknown
Doppler factor
Unknown
Orbital elements
Apogee altitude
24,406.996 km
Perigee altitude
488.467 km
Semi-major axis
18,825.868 km
Eccentricity
0.63526
Inclination
6.9926°
RAAN
197.6691°
Arg. of periapsis
13.3973°
True anomaly
346.96882°
Mean anomaly
357.7401°
Eccentric anomaly
353.82494°
Mean motion
0.84025 °/min
Orbital period
428.44 mins
BSTAR
0.0041129
Loading maneuver chart data...
Computing Atmospheric mass density...
Loading historical data...
Loading historical data...
Loading historical data...
Loading historical data...
Loading historical data...
Loading historical data...
Loading historical data...

Documentation

Showing up to 5 results
|